Location: Lourdes
(43.1000°N, 0.0500°W)
Time: 06:07:58
(UTC+00:00)

Cosmos 489 Rocket - Pass Details

Date: 30 November 2020
Orbit: 952 x 984 km, 74.0° (Epoch: 27 January)

Event Time Altitude Azimuth Distance (km) Brightness Sun altitude
Rises 17:55:12 0° 199° (SSW) 3,611 8.0 -15.8°
Reaches altitude 10° 17:57:42 10° 200° (SSW) 2,670 7.3 -16.2°
Maximum altitude 18:03:53 86° 290° (WNW) 963 4.5 -17.3°
Drops below altitude 10° 18:10:09 10° 20° (NNE) 2,700 6.5 -18.4°
Enters shadow 18:10:41 - 20° (NNE) 2,901 6.7 -18.5°
